<?xml version="1.0" encoding="UTF-8" standalone="no" ?>
<gpx xmlns="http://www.topografix.com/GPX/1/1" xmlns:xsi="http://www.w3.org/2001/XMLSchema-instance" xsi:schemaLocation="http://www.topografix.com/GPX/1/1 http://www.topografix.com/GPX/1/1/gpx.xsd" version="1.1" creator="VisuGPX - https://www.visugpx.com">
  <metadata>
    <name>BIZENEUILLETTE</name>
    <desc><![CDATA[Rando 13 km possibilité de raccourcis]]></desc>
  </metadata>
  <trk>
    <name><![CDATA[Bizeneuille La Bizeneuillette DJT]]></name>
    <trkseg>
      <trkpt lat="46.40739" lon="2.73489">
        <ele>298.6</ele>
        <time>2015-11-20T07:46:45Z</time>
      </trkpt>
      <trkpt lat="46.40742" lon="2.73504">
        <ele>299.3</ele>
        <time>2015-11-20T07:46:45Z</time>
      </trkpt>
      <trkpt lat="46.40756" lon="2.7349">
        <ele>297.9</ele>
        <time>2015-11-20T07:46:45Z</time>
      </trkpt>
      <trkpt lat="46.40763" lon="2.7351">
        <ele>298.3</ele>
        <time>2015-11-20T07:46:45Z</time>
      </trkpt>
      <trkpt lat="46.40767" lon="2.73521">
        <ele>298</ele>
        <time>2015-11-20T07:46:45Z</time>
      </trkpt>
      <trkpt lat="46.40777" lon="2.73523">
        <ele>297.5</ele>
        <time>2015-11-20T07:46:45Z</time>
      </trkpt>
      <trkpt lat="46.40782" lon="2.73528">
        <ele>297.2</ele>
        <time>2015-11-20T07:46:45Z</time>
      </trkpt>
      <trkpt lat="46.40779" lon="2.73568">
        <ele>297.6</ele>
        <time>2015-11-20T07:46:45Z</time>
      </trkpt>
      <trkpt lat="46.40779" lon="2.73602">
        <ele>297.2</ele>
        <time>2015-11-20T07:46:45Z</time>
      </trkpt>
      <trkpt lat="46.40781" lon="2.73627">
        <ele>296.5</ele>
        <time>2015-11-20T07:46:45Z</time>
      </trkpt>
      <trkpt lat="46.40785" lon="2.73655">
        <ele>295.6</ele>
        <time>2015-11-20T07:46:45Z</time>
      </trkpt>
      <trkpt lat="46.40795" lon="2.73694">
        <ele>295.2</ele>
        <time>2015-11-20T07:46:45Z</time>
      </trkpt>
      <trkpt lat="46.40802" lon="2.73743">
        <ele>295.4</ele>
        <time>2015-11-20T07:46:45Z</time>
      </trkpt>
      <trkpt lat="46.40808" lon="2.73771">
        <ele>295.7</ele>
        <time>2015-11-20T07:46:45Z</time>
      </trkpt>
      <trkpt lat="46.40815" lon="2.73802">
        <ele>296.1</ele>
        <time>2015-11-20T07:46:45Z</time>
      </trkpt>
      <trkpt lat="46.4083" lon="2.73848">
        <ele>296</ele>
        <time>2015-11-20T07:46:45Z</time>
      </trkpt>
      <trkpt lat="46.40844" lon="2.73872">
        <ele>294.9</ele>
        <time>2015-11-20T07:46:45Z</time>
      </trkpt>
      <trkpt lat="46.40868" lon="2.73888">
        <ele>293.4</ele>
        <time>2015-11-20T07:46:45Z</time>
      </trkpt>
      <trkpt lat="46.40934" lon="2.73933">
        <ele>289.8</ele>
        <time>2015-11-20T07:46:45Z</time>
      </trkpt>
      <trkpt lat="46.40986" lon="2.7396">
        <ele>285.6</ele>
        <time>2015-11-20T07:46:45Z</time>
      </trkpt>
      <trkpt lat="46.41024" lon="2.73982">
        <ele>279.7</ele>
        <time>2015-11-20T07:46:45Z</time>
      </trkpt>
      <trkpt lat="46.41048" lon="2.73994">
        <ele>275.2</ele>
        <time>2015-11-20T07:46:45Z</time>
      </trkpt>
      <trkpt lat="46.41064" lon="2.73998">
        <ele>272.3</ele>
        <time>2015-11-20T07:46:45Z</time>
      </trkpt>
      <trkpt lat="46.41078" lon="2.73996">
        <ele>270.1</ele>
        <time>2015-11-20T07:46:45Z</time>
      </trkpt>
      <trkpt lat="46.41104" lon="2.7399">
        <ele>267</ele>
        <time>2015-11-20T07:46:45Z</time>
      </trkpt>
      <trkpt lat="46.41146" lon="2.73978">
        <ele>262.4</ele>
        <time>2015-11-20T07:46:45Z</time>
      </trkpt>
      <trkpt lat="46.41163" lon="2.73976">
        <ele>260.4</ele>
        <time>2015-11-20T07:46:45Z</time>
      </trkpt>
      <trkpt lat="46.41182" lon="2.73966">
        <ele>259.7</ele>
        <time>2015-11-20T07:46:45Z</time>
      </trkpt>
      <trkpt lat="46.41201" lon="2.73953">
        <ele>259.4</ele>
        <time>2015-11-20T07:46:45Z</time>
      </trkpt>
      <trkpt lat="46.41221" lon="2.73942">
        <ele>258.9</ele>
        <time>2015-11-20T07:46:45Z</time>
      </trkpt>
      <trkpt lat="46.41232" lon="2.73932">
        <ele>258.6</ele>
        <time>2015-11-20T07:46:45Z</time>
      </trkpt>
      <trkpt lat="46.41243" lon="2.73923">
        <ele>258.3</ele>
        <time>2015-11-20T07:46:45Z</time>
      </trkpt>
      <trkpt lat="46.41253" lon="2.73922">
        <ele>258.1</ele>
        <time>2015-11-20T07:46:45Z</time>
      </trkpt>
      <trkpt lat="46.41268" lon="2.73926">
        <ele>258.5</ele>
        <time>2015-11-20T07:46:45Z</time>
      </trkpt>
      <trkpt lat="46.41285" lon="2.73931">
        <ele>259</ele>
        <time>2015-11-20T07:46:45Z</time>
      </trkpt>
      <trkpt lat="46.41298" lon="2.73932">
        <ele>259.5</ele>
        <time>2015-11-20T07:46:45Z</time>
      </trkpt>
      <trkpt lat="46.4131" lon="2.73929">
        <ele>259.9</ele>
        <time>2015-11-20T07:46:45Z</time>
      </trkpt>
      <trkpt lat="46.41326" lon="2.73925">
        <ele>260.6</ele>
        <time>2015-11-20T07:46:45Z</time>
      </trkpt>
      <trkpt lat="46.41357" lon="2.73916">
        <ele>262.7</ele>
        <time>2015-11-20T07:46:45Z</time>
      </trkpt>
      <trkpt lat="46.41362" lon="2.73909">
        <ele>263.3</ele>
        <time>2015-11-20T07:46:45Z</time>
      </trkpt>
      <trkpt lat="46.41367" lon="2.73899">
        <ele>264</ele>
        <time>2015-11-20T07:46:45Z</time>
      </trkpt>
      <trkpt lat="46.41374" lon="2.73893">
        <ele>264.6</ele>
        <time>2015-11-20T07:46:45Z</time>
      </trkpt>
      <trkpt lat="46.4138" lon="2.73891">
        <ele>265.1</ele>
        <time>2015-11-20T07:46:45Z</time>
      </trkpt>
      <trkpt lat="46.41388" lon="2.73886">
        <ele>265.9</ele>
        <time>2015-11-20T07:46:45Z</time>
      </trkpt>
      <trkpt lat="46.414" lon="2.73884">
        <ele>266.9</ele>
        <time>2015-11-20T07:46:45Z</time>
      </trkpt>
      <trkpt lat="46.41424" lon="2.73883">
        <ele>268.5</ele>
        <time>2015-11-20T07:46:45Z</time>
      </trkpt>
      <trkpt lat="46.41455" lon="2.73877">
        <ele>270.1</ele>
        <time>2015-11-20T07:46:45Z</time>
      </trkpt>
      <trkpt lat="46.41477" lon="2.73878">
        <ele>271</ele>
        <time>2015-11-20T07:46:45Z</time>
      </trkpt>
      <trkpt lat="46.41509" lon="2.7388">
        <ele>272.3</ele>
        <time>2015-11-20T07:46:45Z</time>
      </trkpt>
      <trkpt lat="46.41559" lon="2.73886">
        <ele>274.8</ele>
        <time>2015-11-20T07:46:45Z</time>
      </trkpt>
      <trkpt lat="46.41595" lon="2.73889">
        <ele>276.6</ele>
        <time>2015-11-20T07:46:45Z</time>
      </trkpt>
      <trkpt lat="46.4161" lon="2.73889">
        <ele>277.5</ele>
        <time>2015-11-20T07:46:45Z</time>
      </trkpt>
      <trkpt lat="46.41626" lon="2.73887">
        <ele>278.5</ele>
        <time>2015-11-20T07:46:45Z</time>
      </trkpt>
      <trkpt lat="46.41639" lon="2.73883">
        <ele>279.3</ele>
        <time>2015-11-20T07:46:45Z</time>
      </trkpt>
      <trkpt lat="46.41712" lon="2.73863">
        <ele>282.8</ele>
        <time>2015-11-20T07:46:45Z</time>
      </trkpt>
      <trkpt lat="46.41749" lon="2.73852">
        <ele>284</ele>
        <time>2015-11-20T07:46:45Z</time>
      </trkpt>
      <trkpt lat="46.41754" lon="2.7385">
        <ele>284</ele>
        <time>2015-11-20T07:46:45Z</time>
      </trkpt>
      <trkpt lat="46.41768" lon="2.73827">
        <ele>283.8</ele>
        <time>2015-11-20T07:46:45Z</time>
      </trkpt>
      <trkpt lat="46.41774" lon="2.73826">
        <ele>283.7</ele>
        <time>2015-11-20T07:46:45Z</time>
      </trkpt>
      <trkpt lat="46.41783" lon="2.73826">
        <ele>283.6</ele>
        <time>2015-11-20T07:46:45Z</time>
      </trkpt>
      <trkpt lat="46.41795" lon="2.73831">
        <ele>283.4</ele>
        <time>2015-11-20T07:46:45Z</time>
      </trkpt>
      <trkpt lat="46.41813" lon="2.7383">
        <ele>283.2</ele>
        <time>2015-11-20T07:46:45Z</time>
      </trkpt>
      <trkpt lat="46.41829" lon="2.73829">
        <ele>282.9</ele>
        <time>2015-11-20T07:46:45Z</time>
      </trkpt>
      <trkpt lat="46.41852" lon="2.73821">
        <ele>281.7</ele>
        <time>2015-11-20T07:46:45Z</time>
      </trkpt>
      <trkpt lat="46.41848" lon="2.7379">
        <ele>280.9</ele>
        <time>2015-11-20T07:46:45Z</time>
      </trkpt>
      <trkpt lat="46.41845" lon="2.73752">
        <ele>279.9</ele>
        <time>2015-11-20T07:46:45Z</time>
      </trkpt>
      <trkpt lat="46.41843" lon="2.73705">
        <ele>281</ele>
        <time>2015-11-20T07:46:45Z</time>
      </trkpt>
      <trkpt lat="46.41843" lon="2.73676">
        <ele>281.6</ele>
        <time>2015-11-20T07:46:45Z</time>
      </trkpt>
      <trkpt lat="46.41842" lon="2.73657">
        <ele>281.9</ele>
        <time>2015-11-20T07:46:45Z</time>
      </trkpt>
      <trkpt lat="46.41837" lon="2.73626">
        <ele>282.1</ele>
        <time>2015-11-20T07:46:45Z</time>
      </trkpt>
      <trkpt lat="46.41837" lon="2.73599">
        <ele>281.9</ele>
        <time>2015-11-20T07:46:45Z</time>
      </trkpt>
      <trkpt lat="46.41837" lon="2.7357">
        <ele>281.7</ele>
        <time>2015-11-20T07:46:45Z</time>
      </trkpt>
      <trkpt lat="46.41837" lon="2.73521">
        <ele>281.7</ele>
        <time>2015-11-20T07:46:45Z</time>
      </trkpt>
      <trkpt lat="46.41836" lon="2.73501">
        <ele>281.8</ele>
        <time>2015-11-20T07:46:45Z</time>
      </trkpt>
      <trkpt lat="46.41834" lon="2.73477">
        <ele>282.2</ele>
        <time>2015-11-20T07:46:45Z</time>
      </trkpt>
      <trkpt lat="46.4183" lon="2.73457">
        <ele>282.7</ele>
        <time>2015-11-20T07:46:45Z</time>
      </trkpt>
      <trkpt lat="46.41821" lon="2.7343">
        <ele>283.5</ele>
        <time>2015-11-20T07:46:45Z</time>
      </trkpt>
      <trkpt lat="46.41814" lon="2.73409">
        <ele>283.8</ele>
        <time>2015-11-20T07:46:45Z</time>
      </trkpt>
      <trkpt lat="46.41805" lon="2.73383">
        <ele>284</ele>
        <time>2015-11-20T07:46:45Z</time>
      </trkpt>
      <trkpt lat="46.41784" lon="2.73331">
        <ele>284.4</ele>
        <time>2015-11-20T07:46:45Z</time>
      </trkpt>
      <trkpt lat="46.41777" lon="2.73314">
        <ele>285.1</ele>
        <time>2015-11-20T07:46:45Z</time>
      </trkpt>
      <trkpt lat="46.41773" lon="2.73303">
        <ele>285.6</ele>
        <time>2015-11-20T07:46:45Z</time>
      </trkpt>
      <trkpt lat="46.41772" lon="2.73291">
        <ele>285.8</ele>
        <time>2015-11-20T07:46:45Z</time>
      </trkpt>
      <trkpt lat="46.41771" lon="2.73278">
        <ele>286.2</ele>
        <time>2015-11-20T07:46:45Z</time>
      </trkpt>
      <trkpt lat="46.41769" lon="2.73264">
        <ele>286.6</ele>
        <time>2015-11-20T07:46:45Z</time>
      </trkpt>
      <trkpt lat="46.41768" lon="2.73248">
        <ele>287</ele>
        <time>2015-11-20T07:46:45Z</time>
      </trkpt>
      <trkpt lat="46.41767" lon="2.73226">
        <ele>287.9</ele>
        <time>2015-11-20T07:46:45Z</time>
      </trkpt>
      <trkpt lat="46.41763" lon="2.73206">
        <ele>288.8</ele>
        <time>2015-11-20T07:46:45Z</time>
      </trkpt>
      <trkpt lat="46.4176" lon="2.73186">
        <ele>289.7</ele>
        <time>2015-11-20T07:46:45Z</time>
      </trkpt>
      <trkpt lat="46.41757" lon="2.73172">
        <ele>290.4</ele>
        <time>2015-11-20T07:46:45Z</time>
      </trkpt>
      <trkpt lat="46.41755" lon="2.73158">
        <ele>290.7</ele>
        <time>2015-11-20T07:46:45Z</time>
      </trkpt>
      <trkpt lat="46.41756" lon="2.73141">
        <ele>290.6</ele>
        <time>2015-11-20T07:46:45Z</time>
      </trkpt>
      <trkpt lat="46.41755" lon="2.7312">
        <ele>290.7</ele>
        <time>2015-11-20T07:46:45Z</time>
      </trkpt>
      <trkpt lat="46.41755" lon="2.73084">
        <ele>290.7</ele>
        <time>2015-11-20T07:46:45Z</time>
      </trkpt>
      <trkpt lat="46.41756" lon="2.7305">
        <ele>289.8</ele>
        <time>2015-11-20T07:46:45Z</time>
      </trkpt>
      <trkpt lat="46.41756" lon="2.73025">
        <ele>289.2</ele>
        <time>2015-11-20T07:46:45Z</time>
      </trkpt>
      <trkpt lat="46.41756" lon="2.72971">
        <ele>289.3</ele>
        <time>2015-11-20T07:46:45Z</time>
      </trkpt>
      <trkpt lat="46.41756" lon="2.72942">
        <ele>290.1</ele>
        <time>2015-11-20T07:46:45Z</time>
      </trkpt>
      <trkpt lat="46.41759" lon="2.72915">
        <ele>290.4</ele>
        <time>2015-11-20T07:46:45Z</time>
      </trkpt>
      <trkpt lat="46.41763" lon="2.72872">
        <ele>290.7</ele>
        <time>2015-11-20T07:46:45Z</time>
      </trkpt>
      <trkpt lat="46.41769" lon="2.72824">
        <ele>291.1</ele>
        <time>2015-11-20T07:46:45Z</time>
      </trkpt>
      <trkpt lat="46.41776" lon="2.72763">
        <ele>292.4</ele>
        <time>2015-11-20T07:46:45Z</time>
      </trkpt>
      <trkpt lat="46.41785" lon="2.72705">
        <ele>293.2</ele>
        <time>2015-11-20T07:46:45Z</time>
      </trkpt>
      <trkpt lat="46.4179" lon="2.7266">
        <ele>293.8</ele>
        <time>2015-11-20T07:46:45Z</time>
      </trkpt>
      <trkpt lat="46.41794" lon="2.72634">
        <ele>294.2</ele>
        <time>2015-11-20T07:46:45Z</time>
      </trkpt>
      <trkpt lat="46.41796" lon="2.72613">
        <ele>294.6</ele>
        <time>2015-11-20T07:46:45Z</time>
      </trkpt>
      <trkpt lat="46.41797" lon="2.72592">
        <ele>295</ele>
        <time>2015-11-20T07:46:45Z</time>
      </trkpt>
      <trkpt lat="46.41795" lon="2.72568">
        <ele>296</ele>
        <time>2015-11-20T07:46:45Z</time>
      </trkpt>
      <trkpt lat="46.41794" lon="2.72538">
        <ele>297.3</ele>
        <time>2015-11-20T07:46:45Z</time>
      </trkpt>
      <trkpt lat="46.41795" lon="2.72512">
        <ele>298.4</ele>
        <time>2015-11-20T07:46:45Z</time>
      </trkpt>
      <trkpt lat="46.41808" lon="2.72491">
        <ele>298.8</ele>
        <time>2015-11-20T07:46:45Z</time>
      </trkpt>
      <trkpt lat="46.41832" lon="2.72452">
        <ele>299.2</ele>
        <time>2015-11-20T07:46:45Z</time>
      </trkpt>
      <trkpt lat="46.41841" lon="2.72436">
        <ele>299.3</ele>
        <time>2015-11-20T07:46:45Z</time>
      </trkpt>
      <trkpt lat="46.41854" lon="2.72409">
        <ele>299.9</ele>
        <time>2015-11-20T07:46:45Z</time>
      </trkpt>
      <trkpt lat="46.41859" lon="2.72397">
        <ele>300.2</ele>
        <time>2015-11-20T07:46:45Z</time>
      </trkpt>
      <trkpt lat="46.41868" lon="2.72401">
        <ele>300</ele>
        <time>2015-11-20T07:46:45Z</time>
      </trkpt>
      <trkpt lat="46.41887" lon="2.724">
        <ele>299.8</ele>
        <time>2015-11-20T07:46:45Z</time>
      </trkpt>
      <trkpt lat="46.41949" lon="2.72395">
        <ele>297.4</ele>
        <time>2015-11-20T07:46:45Z</time>
      </trkpt>
      <trkpt lat="46.41974" lon="2.72393">
        <ele>295.9</ele>
        <time>2015-11-20T07:46:45Z</time>
      </trkpt>
      <trkpt lat="46.41981" lon="2.72384">
        <ele>295.8</ele>
        <time>2015-11-20T07:46:45Z</time>
      </trkpt>
      <trkpt lat="46.41997" lon="2.7236">
        <ele>295.9</ele>
        <time>2015-11-20T07:46:45Z</time>
      </trkpt>
      <trkpt lat="46.42025" lon="2.72327">
        <ele>296.9</ele>
        <time>2015-11-20T07:46:45Z</time>
      </trkpt>
      <trkpt lat="46.42031" lon="2.72321">
        <ele>297</ele>
        <time>2015-11-20T07:46:45Z</time>
      </trkpt>
      <trkpt lat="46.42047" lon="2.72323">
        <ele>296.8</ele>
        <time>2015-11-20T07:46:45Z</time>
      </trkpt>
      <trkpt lat="46.42066" lon="2.72323">
        <ele>296.5</ele>
        <time>2015-11-20T07:46:45Z</time>
      </trkpt>
      <trkpt lat="46.42084" lon="2.72323">
        <ele>296.2</ele>
        <time>2015-11-20T07:46:45Z</time>
      </trkpt>
      <trkpt lat="46.42113" lon="2.72317">
        <ele>295.6</ele>
        <time>2015-11-20T07:46:45Z</time>
      </trkpt>
      <trkpt lat="46.42128" lon="2.72313">
        <ele>295.2</ele>
        <time>2015-11-20T07:46:45Z</time>
      </trkpt>
      <trkpt lat="46.42136" lon="2.72315">
        <ele>294.9</ele>
        <time>2015-11-20T07:46:45Z</time>
      </trkpt>
      <trkpt lat="46.42155" lon="2.72337">
        <ele>294.3</ele>
        <time>2015-11-20T07:46:45Z</time>
      </trkpt>
      <trkpt lat="46.42177" lon="2.72366">
        <ele>293.5</ele>
        <time>2015-11-20T07:46:45Z</time>
      </trkpt>
      <trkpt lat="46.42184" lon="2.72375">
        <ele>293.3</ele>
        <time>2015-11-20T07:46:45Z</time>
      </trkpt>
      <trkpt lat="46.42198" lon="2.7238">
        <ele>292.7</ele>
        <time>2015-11-20T07:46:45Z</time>
      </trkpt>
      <trkpt lat="46.42221" lon="2.72386">
        <ele>291.8</ele>
        <time>2015-11-20T07:46:45Z</time>
      </trkpt>
      <trkpt lat="46.42233" lon="2.72387">
        <ele>291.3</ele>
        <time>2015-11-20T07:46:45Z</time>
      </trkpt>
      <trkpt lat="46.42246" lon="2.72384">
        <ele>290.8</ele>
        <time>2015-11-20T07:46:45Z</time>
      </trkpt>
      <trkpt lat="46.4226" lon="2.7238">
        <ele>290.8</ele>
        <time>2015-11-20T07:46:45Z</time>
      </trkpt>
      <trkpt lat="46.42275" lon="2.72375">
        <ele>291.1</ele>
        <time>2015-11-20T07:46:45Z</time>
      </trkpt>
      <trkpt lat="46.42291" lon="2.72375">
        <ele>291.5</ele>
        <time>2015-11-20T07:46:45Z</time>
      </trkpt>
      <trkpt lat="46.42309" lon="2.72382">
        <ele>292</ele>
        <time>2015-11-20T07:46:45Z</time>
      </trkpt>
      <trkpt lat="46.4232" lon="2.72385">
        <ele>292.3</ele>
        <time>2015-11-20T07:46:45Z</time>
      </trkpt>
      <trkpt lat="46.42334" lon="2.72401">
        <ele>292.8</ele>
        <time>2015-11-20T07:46:45Z</time>
      </trkpt>
      <trkpt lat="46.42349" lon="2.72417">
        <ele>293.6</ele>
        <time>2015-11-20T07:46:45Z</time>
      </trkpt>
      <trkpt lat="46.42357" lon="2.7243">
        <ele>294.2</ele>
        <time>2015-11-20T07:46:45Z</time>
      </trkpt>
      <trkpt lat="46.42372" lon="2.72433">
        <ele>294.7</ele>
        <time>2015-11-20T07:46:45Z</time>
      </trkpt>
      <trkpt lat="46.42404" lon="2.7244">
        <ele>295.7</ele>
        <time>2015-11-20T07:46:45Z</time>
      </trkpt>
      <trkpt lat="46.42413" lon="2.72444">
        <ele>295.9</ele>
        <time>2015-11-20T07:46:45Z</time>
      </trkpt>
      <trkpt lat="46.42441" lon="2.72446">
        <ele>296.6</ele>
        <time>2015-11-20T07:46:45Z</time>
      </trkpt>
      <trkpt lat="46.42476" lon="2.72457">
        <ele>297.4</ele>
        <time>2015-11-20T07:46:45Z</time>
      </trkpt>
      <trkpt lat="46.42489" lon="2.7246">
        <ele>297.7</ele>
        <time>2015-11-20T07:46:45Z</time>
      </trkpt>
      <trkpt lat="46.42525" lon="2.72473">
        <ele>298.7</ele>
        <time>2015-11-20T07:46:45Z</time>
      </trkpt>
      <trkpt lat="46.42537" lon="2.72477">
        <ele>299.1</ele>
        <time>2015-11-20T07:46:45Z</time>
      </trkpt>
      <trkpt lat="46.42546" lon="2.72481">
        <ele>299.4</ele>
        <time>2015-11-20T07:46:45Z</time>
      </trkpt>
      <trkpt lat="46.42569" lon="2.72482">
        <ele>300.1</ele>
        <time>2015-11-20T07:46:45Z</time>
      </trkpt>
      <trkpt lat="46.42613" lon="2.72487">
        <ele>301.4</ele>
        <time>2015-11-20T07:46:45Z</time>
      </trkpt>
      <trkpt lat="46.42683" lon="2.7249">
        <ele>302.9</ele>
        <time>2015-11-20T07:46:45Z</time>
      </trkpt>
      <trkpt lat="46.42702" lon="2.72492">
        <ele>303</ele>
        <time>2015-11-20T07:46:45Z</time>
      </trkpt>
      <trkpt lat="46.42729" lon="2.72489">
        <ele>303.1</ele>
        <time>2015-11-20T07:46:45Z</time>
      </trkpt>
      <trkpt lat="46.42762" lon="2.72486">
        <ele>303.4</ele>
        <time>2015-11-20T07:46:45Z</time>
      </trkpt>
      <trkpt lat="46.42801" lon="2.72483">
        <ele>304.3</ele>
        <time>2015-11-20T07:46:45Z</time>
      </trkpt>
      <trkpt lat="46.42945" lon="2.72465">
        <ele>306.5</ele>
        <time>2015-11-20T07:46:45Z</time>
      </trkpt>
      <trkpt lat="46.43" lon="2.7248">
        <ele>306.7</ele>
        <time>2015-11-20T07:46:45Z</time>
      </trkpt>
      <trkpt lat="46.43028" lon="2.72488">
        <ele>307.6</ele>
        <time>2015-11-20T07:46:45Z</time>
      </trkpt>
      <trkpt lat="46.43072" lon="2.72496">
        <ele>308.7</ele>
        <time>2015-11-20T07:46:45Z</time>
      </trkpt>
      <trkpt lat="46.43116" lon="2.72498">
        <ele>309.4</ele>
        <time>2015-11-20T07:46:45Z</time>
      </trkpt>
      <trkpt lat="46.43184" lon="2.7249">
        <ele>309.9</ele>
        <time>2015-11-20T07:46:45Z</time>
      </trkpt>
      <trkpt lat="46.43208" lon="2.72486">
        <ele>309.8</ele>
        <time>2015-11-20T07:46:45Z</time>
      </trkpt>
      <trkpt lat="46.43214" lon="2.72481">
        <ele>309.8</ele>
        <time>2015-11-20T07:46:45Z</time>
      </trkpt>
      <trkpt lat="46.4322" lon="2.72477">
        <ele>309.8</ele>
        <time>2015-11-20T07:46:45Z</time>
      </trkpt>
      <trkpt lat="46.43221" lon="2.72472">
        <ele>309.9</ele>
        <time>2015-11-20T07:46:45Z</time>
      </trkpt>
      <trkpt lat="46.43224" lon="2.72464">
        <ele>310.1</ele>
        <time>2015-11-20T07:46:45Z</time>
      </trkpt>
      <trkpt lat="46.43228" lon="2.72455">
        <ele>310.2</ele>
        <time>2015-11-20T07:46:45Z</time>
      </trkpt>
      <trkpt lat="46.43233" lon="2.72459">
        <ele>310.1</ele>
        <time>2015-11-20T07:46:45Z</time>
      </trkpt>
      <trkpt lat="46.43246" lon="2.72465">
        <ele>309.9</ele>
        <time>2015-11-20T07:46:45Z</time>
      </trkpt>
      <trkpt lat="46.43265" lon="2.72468">
        <ele>309.3</ele>
        <time>2015-11-20T07:46:45Z</time>
      </trkpt>
      <trkpt lat="46.43283" lon="2.72469">
        <ele>308.7</ele>
        <time>2015-11-20T07:46:45Z</time>
      </trkpt>
      <trkpt lat="46.43336" lon="2.7247">
        <ele>307.1</ele>
        <time>2015-11-20T07:46:45Z</time>
      </trkpt>
      <trkpt lat="46.43346" lon="2.72466">
        <ele>307.2</ele>
        <time>2015-11-20T07:46:45Z</time>
      </trkpt>
      <trkpt lat="46.43352" lon="2.72462">
        <ele>307.4</ele>
        <time>2015-11-20T07:46:45Z</time>
      </trkpt>
      <trkpt lat="46.43361" lon="2.72446">
        <ele>308</ele>
        <time>2015-11-20T07:46:45Z</time>
      </trkpt>
      <trkpt lat="46.43384" lon="2.72417">
        <ele>309</ele>
        <time>2015-11-20T07:46:45Z</time>
      </trkpt>
      <trkpt lat="46.43402" lon="2.72399">
        <ele>309.6</ele>
        <time>2015-11-20T07:46:45Z</time>
      </trkpt>
      <trkpt lat="46.43418" lon="2.72384">
        <ele>310.2</ele>
        <time>2015-11-20T07:46:45Z</time>
      </trkpt>
      <trkpt lat="46.43445" lon="2.72366">
        <ele>310.1</ele>
        <time>2015-11-20T07:46:45Z</time>
      </trkpt>
      <trkpt lat="46.4346" lon="2.72358">
        <ele>310.1</ele>
        <time>2015-11-20T07:46:45Z</time>
      </trkpt>
      <trkpt lat="46.43476" lon="2.72355">
        <ele>309.8</ele>
        <time>2015-11-20T07:46:45Z</time>
      </trkpt>
      <trkpt lat="46.4349" lon="2.72351">
        <ele>309.6</ele>
        <time>2015-11-20T07:46:45Z</time>
      </trkpt>
      <trkpt lat="46.43508" lon="2.72345">
        <ele>309.5</ele>
        <time>2015-11-20T07:46:45Z</time>
      </trkpt>
      <trkpt lat="46.43517" lon="2.7234">
        <ele>309.6</ele>
        <time>2015-11-20T07:46:45Z</time>
      </trkpt>
      <trkpt lat="46.43535" lon="2.72325">
        <ele>310</ele>
        <time>2015-11-20T07:46:45Z</time>
      </trkpt>
      <trkpt lat="46.43554" lon="2.72304">
        <ele>310.6</ele>
        <time>2015-11-20T07:46:45Z</time>
      </trkpt>
      <trkpt lat="46.43574" lon="2.72276">
        <ele>311.3</ele>
        <time>2015-11-20T07:46:45Z</time>
      </trkpt>
      <trkpt lat="46.43598" lon="2.72244">
        <ele>311.5</ele>
        <time>2015-11-20T07:46:45Z</time>
      </trkpt>
      <trkpt lat="46.43619" lon="2.72216">
        <ele>310.9</ele>
        <time>2015-11-20T07:46:45Z</time>
      </trkpt>
      <trkpt lat="46.43648" lon="2.72176">
        <ele>310.4</ele>
        <time>2015-11-20T07:46:45Z</time>
      </trkpt>
      <trkpt lat="46.43696" lon="2.72108">
        <ele>309.3</ele>
        <time>2015-11-20T07:46:45Z</time>
      </trkpt>
      <trkpt lat="46.4372" lon="2.72074">
        <ele>308.6</ele>
        <time>2015-11-20T07:46:45Z</time>
      </trkpt>
      <trkpt lat="46.43731" lon="2.7206">
        <ele>308.2</ele>
        <time>2015-11-20T07:46:45Z</time>
      </trkpt>
      <trkpt lat="46.43752" lon="2.72096">
        <ele>308</ele>
        <time>2015-11-20T07:46:45Z</time>
      </trkpt>
      <trkpt lat="46.43766" lon="2.72122">
        <ele>307.8</ele>
        <time>2015-11-20T07:46:45Z</time>
      </trkpt>
      <trkpt lat="46.43775" lon="2.7214">
        <ele>307.7</ele>
        <time>2015-11-20T07:46:45Z</time>
      </trkpt>
      <trkpt lat="46.4378" lon="2.72149">
        <ele>307.6</ele>
        <time>2015-11-20T07:46:45Z</time>
      </trkpt>
      <trkpt lat="46.43782" lon="2.7215">
        <ele>307.6</ele>
        <time>2015-11-20T07:46:45Z</time>
      </trkpt>
      <trkpt lat="46.43785" lon="2.72152">
        <ele>307.6</ele>
        <time>2015-11-20T07:46:45Z</time>
      </trkpt>
      <trkpt lat="46.43788" lon="2.72153">
        <ele>307.5</ele>
        <time>2015-11-20T07:46:45Z</time>
      </trkpt>
      <trkpt lat="46.43792" lon="2.72153">
        <ele>307.5</ele>
        <time>2015-11-20T07:46:45Z</time>
      </trkpt>
      <trkpt lat="46.43797" lon="2.72151">
        <ele>307.4</ele>
        <time>2015-11-20T07:46:45Z</time>
      </trkpt>
      <trkpt lat="46.43801" lon="2.72149">
        <ele>307.4</ele>
        <time>2015-11-20T07:46:45Z</time>
      </trkpt>
      <trkpt lat="46.43805" lon="2.72147">
        <ele>307.3</ele>
        <time>2015-11-20T07:46:45Z</time>
      </trkpt>
      <trkpt lat="46.43817" lon="2.72142">
        <ele>307.2</ele>
        <time>2015-11-20T07:46:45Z</time>
      </trkpt>
      <trkpt lat="46.43822" lon="2.7214">
        <ele>307.1</ele>
        <time>2015-11-20T07:46:45Z</time>
      </trkpt>
      <trkpt lat="46.43825" lon="2.72141">
        <ele>307.1</ele>
        <time>2015-11-20T07:46:45Z</time>
      </trkpt>
      <trkpt lat="46.43826" lon="2.72144">
        <ele>307.1</ele>
        <time>2015-11-20T07:46:45Z</time>
      </trkpt>
      <trkpt lat="46.43827" lon="2.72155">
        <ele>307.1</ele>
        <time>2015-11-20T07:46:45Z</time>
      </trkpt>
      <trkpt lat="46.43828" lon="2.72169">
        <ele>307.1</ele>
        <time>2015-11-20T07:46:45Z</time>
      </trkpt>
      <trkpt lat="46.4383" lon="2.72181">
        <ele>307</ele>
        <time>2015-11-20T07:46:45Z</time>
      </trkpt>
      <trkpt lat="46.43832" lon="2.72191">
        <ele>307</ele>
        <time>2015-11-20T07:46:45Z</time>
      </trkpt>
      <trkpt lat="46.43834" lon="2.72201">
        <ele>307</ele>
        <time>2015-11-20T07:46:45Z</time>
      </trkpt>
      <trkpt lat="46.43837" lon="2.7221">
        <ele>306.8</ele>
        <time>2015-11-20T07:46:45Z</time>
      </trkpt>
      <trkpt lat="46.4384" lon="2.72218">
        <ele>306.7</ele>
        <time>2015-11-20T07:46:45Z</time>
      </trkpt>
      <trkpt lat="46.43852" lon="2.72241">
        <ele>306</ele>
        <time>2015-11-20T07:46:45Z</time>
      </trkpt>
      <trkpt lat="46.43859" lon="2.72256">
        <ele>305.3</ele>
        <time>2015-11-20T07:46:45Z</time>
      </trkpt>
      <trkpt lat="46.43867" lon="2.72274">
        <ele>304.4</ele>
        <time>2015-11-20T07:46:45Z</time>
      </trkpt>
      <trkpt lat="46.43876" lon="2.72293">
        <ele>303.4</ele>
        <time>2015-11-20T07:46:45Z</time>
      </trkpt>
      <trkpt lat="46.43883" lon="2.72309">
        <ele>302.6</ele>
        <time>2015-11-20T07:46:45Z</time>
      </trkpt>
      <trkpt lat="46.43921" lon="2.7238">
        <ele>298.7</ele>
        <time>2015-11-20T07:46:45Z</time>
      </trkpt>
      <trkpt lat="46.43937" lon="2.72409">
        <ele>297.7</ele>
        <time>2015-11-20T07:46:45Z</time>
      </trkpt>
      <trkpt lat="46.43944" lon="2.72418">
        <ele>297.3</ele>
        <time>2015-11-20T07:46:45Z</time>
      </trkpt>
      <trkpt lat="46.4397" lon="2.72459">
        <ele>295.9</ele>
        <time>2015-11-20T07:46:45Z</time>
      </trkpt>
      <trkpt lat="46.4399" lon="2.72492">
        <ele>294.6</ele>
        <time>2015-11-20T07:46:45Z</time>
      </trkpt>
      <trkpt lat="46.44011" lon="2.72535">
        <ele>293</ele>
        <time>2015-11-20T07:46:45Z</time>
      </trkpt>
      <trkpt lat="46.44028" lon="2.7257">
        <ele>291.5</ele>
        <time>2015-11-20T07:46:45Z</time>
      </trkpt>
      <trkpt lat="46.44042" lon="2.72586">
        <ele>290.4</ele>
        <time>2015-11-20T07:46:45Z</time>
      </trkpt>
      <trkpt lat="46.44072" lon="2.72617">
        <ele>288.6</ele>
        <time>2015-11-20T07:46:45Z</time>
      </trkpt>
      <trkpt lat="46.44095" lon="2.7264">
        <ele>287.4</ele>
        <time>2015-11-20T07:46:45Z</time>
      </trkpt>
      <trkpt lat="46.4412" lon="2.72653">
        <ele>286</ele>
        <time>2015-11-20T07:46:45Z</time>
      </trkpt>
      <trkpt lat="46.44139" lon="2.72661">
        <ele>284.8</ele>
        <time>2015-11-20T07:46:45Z</time>
      </trkpt>
      <trkpt lat="46.4415" lon="2.72665">
        <ele>284</ele>
        <time>2015-11-20T07:46:45Z</time>
      </trkpt>
      <trkpt lat="46.44163" lon="2.7268">
        <ele>283.1</ele>
        <time>2015-11-20T07:46:45Z</time>
      </trkpt>
      <trkpt lat="46.44175" lon="2.727">
        <ele>282</ele>
        <time>2015-11-20T07:46:45Z</time>
      </trkpt>
      <trkpt lat="46.44183" lon="2.72713">
        <ele>281.4</ele>
        <time>2015-11-20T07:46:45Z</time>
      </trkpt>
      <trkpt lat="46.44201" lon="2.72734">
        <ele>280</ele>
        <time>2015-11-20T07:46:45Z</time>
      </trkpt>
      <trkpt lat="46.44215" lon="2.72749">
        <ele>279.1</ele>
        <time>2015-11-20T07:46:45Z</time>
      </trkpt>
      <trkpt lat="46.44246" lon="2.7277">
        <ele>277</ele>
        <time>2015-11-20T07:46:45Z</time>
      </trkpt>
      <trkpt lat="46.44347" lon="2.72831">
        <ele>269.6</ele>
        <time>2015-11-20T07:46:45Z</time>
      </trkpt>
      <trkpt lat="46.44376" lon="2.7285">
        <ele>268.4</ele>
        <time>2015-11-20T07:46:45Z</time>
      </trkpt>
      <trkpt lat="46.44384" lon="2.72852">
        <ele>268</ele>
        <time>2015-11-20T07:46:45Z</time>
      </trkpt>
      <trkpt lat="46.44391" lon="2.7285">
        <ele>267.8</ele>
        <time>2015-11-20T07:46:45Z</time>
      </trkpt>
      <trkpt lat="46.44395" lon="2.72846">
        <ele>267.7</ele>
        <time>2015-11-20T07:46:45Z</time>
      </trkpt>
      <trkpt lat="46.44399" lon="2.72839">
        <ele>267.6</ele>
        <time>2015-11-20T07:46:45Z</time>
      </trkpt>
      <trkpt lat="46.44408" lon="2.72815">
        <ele>268</ele>
        <time>2015-11-20T07:46:45Z</time>
      </trkpt>
      <trkpt lat="46.44416" lon="2.728">
        <ele>268.2</ele>
        <time>2015-11-20T07:46:45Z</time>
      </trkpt>
      <trkpt lat="46.44428" lon="2.72777">
        <ele>269.1</ele>
        <time>2015-11-20T07:46:45Z</time>
      </trkpt>
      <trkpt lat="46.44446" lon="2.72753">
        <ele>270.3</ele>
        <time>2015-11-20T07:46:45Z</time>
      </trkpt>
      <trkpt lat="46.44463" lon="2.72734">
        <ele>270.8</ele>
        <time>2015-11-20T07:46:45Z</time>
      </trkpt>
      <trkpt lat="46.44474" lon="2.7272">
        <ele>271</ele>
        <time>2015-11-20T07:46:45Z</time>
      </trkpt>
      <trkpt lat="46.44493" lon="2.72698">
        <ele>271.1</ele>
        <time>2015-11-20T07:46:45Z</time>
      </trkpt>
      <trkpt lat="46.44502" lon="2.72695">
        <ele>270.9</ele>
        <time>2015-11-20T07:46:45Z</time>
      </trkpt>
      <trkpt lat="46.44518" lon="2.72697">
        <ele>270.2</ele>
        <time>2015-11-20T07:46:45Z</time>
      </trkpt>
      <trkpt lat="46.44538" lon="2.72698">
        <ele>269.3</ele>
        <time>2015-11-20T07:46:45Z</time>
      </trkpt>
      <trkpt lat="46.44545" lon="2.72693">
        <ele>269</ele>
        <time>2015-11-20T07:46:45Z</time>
      </trkpt>
      <trkpt lat="46.44547" lon="2.72684">
        <ele>268.8</ele>
        <time>2015-11-20T07:46:45Z</time>
      </trkpt>
      <trkpt lat="46.4455" lon="2.72671">
        <ele>268.6</ele>
        <time>2015-11-20T07:46:45Z</time>
      </trkpt>
      <trkpt lat="46.44553" lon="2.72664">
        <ele>268.4</ele>
        <time>2015-11-20T07:46:45Z</time>
      </trkpt>
      <trkpt lat="46.4456" lon="2.72651">
        <ele>268</ele>
        <time>2015-11-20T07:46:45Z</time>
      </trkpt>
      <trkpt lat="46.44571" lon="2.7264">
        <ele>267.5</ele>
        <time>2015-11-20T07:46:45Z</time>
      </trkpt>
      <trkpt lat="46.44588" lon="2.7263">
        <ele>266.8</ele>
        <time>2015-11-20T07:46:45Z</time>
      </trkpt>
      <trkpt lat="46.44603" lon="2.72623">
        <ele>266.3</ele>
        <time>2015-11-20T07:46:45Z</time>
      </trkpt>
      <trkpt lat="46.44616" lon="2.72614">
        <ele>265.8</ele>
        <time>2015-11-20T07:46:45Z</time>
      </trkpt>
      <trkpt lat="46.44631" lon="2.72604">
        <ele>265.3</ele>
        <time>2015-11-20T07:46:45Z</time>
      </trkpt>
      <trkpt lat="46.44651" lon="2.72585">
        <ele>264.6</ele>
        <time>2015-11-20T07:46:45Z</time>
      </trkpt>
      <trkpt lat="46.44664" lon="2.72572">
        <ele>264.1</ele>
        <time>2015-11-20T07:46:45Z</time>
      </trkpt>
      <trkpt lat="46.4469" lon="2.72541">
        <ele>263</ele>
        <time>2015-11-20T07:46:45Z</time>
      </trkpt>
      <trkpt lat="46.44724" lon="2.72505">
        <ele>261.9</ele>
        <time>2015-11-20T07:46:45Z</time>
      </trkpt>
      <trkpt lat="46.44781" lon="2.72446">
        <ele>260.9</ele>
        <time>2015-11-20T07:46:45Z</time>
      </trkpt>
      <trkpt lat="46.44799" lon="2.72426">
        <ele>260.7</ele>
        <time>2015-11-20T07:46:45Z</time>
      </trkpt>
      <trkpt lat="46.44839" lon="2.72382">
        <ele>260.9</ele>
        <time>2015-11-20T07:46:45Z</time>
      </trkpt>
      <trkpt lat="46.44869" lon="2.72346">
        <ele>262.1</ele>
        <time>2015-11-20T07:46:45Z</time>
      </trkpt>
      <trkpt lat="46.44884" lon="2.72328">
        <ele>262.7</ele>
        <time>2015-11-20T07:46:45Z</time>
      </trkpt>
      <trkpt lat="46.44882" lon="2.72316">
        <ele>263</ele>
        <time>2015-11-20T07:46:45Z</time>
      </trkpt>
      <trkpt lat="46.44881" lon="2.723">
        <ele>263.3</ele>
        <time>2015-11-20T07:46:45Z</time>
      </trkpt>
      <trkpt lat="46.44881" lon="2.72287">
        <ele>263.6</ele>
        <time>2015-11-20T07:46:45Z</time>
      </trkpt>
      <trkpt lat="46.4488" lon="2.72271">
        <ele>264</ele>
        <time>2015-11-20T07:46:45Z</time>
      </trkpt>
      <trkpt lat="46.44879" lon="2.72257">
        <ele>264.3</ele>
        <time>2015-11-20T07:46:45Z</time>
      </trkpt>
      <trkpt lat="46.44872" lon="2.72236">
        <ele>264.9</ele>
        <time>2015-11-20T07:46:45Z</time>
      </trkpt>
      <trkpt lat="46.44866" lon="2.72215">
        <ele>265.6</ele>
        <time>2015-11-20T07:46:45Z</time>
      </trkpt>
      <trkpt lat="46.44858" lon="2.72199">
        <ele>266.2</ele>
        <time>2015-11-20T07:46:45Z</time>
      </trkpt>
      <trkpt lat="46.44855" lon="2.72186">
        <ele>266.7</ele>
        <time>2015-11-20T07:46:45Z</time>
      </trkpt>
      <trkpt lat="46.44852" lon="2.7217">
        <ele>267.2</ele>
        <time>2015-11-20T07:46:45Z</time>
      </trkpt>
      <trkpt lat="46.4485" lon="2.72155">
        <ele>267.7</ele>
        <time>2015-11-20T07:46:45Z</time>
      </trkpt>
      <trkpt lat="46.44847" lon="2.72133">
        <ele>268.4</ele>
        <time>2015-11-20T07:46:45Z</time>
      </trkpt>
      <trkpt lat="46.44847" lon="2.72121">
        <ele>268.8</ele>
        <time>2015-11-20T07:46:45Z</time>
      </trkpt>
      <trkpt lat="46.44847" lon="2.72087">
        <ele>269.8</ele>
        <time>2015-11-20T07:46:45Z</time>
      </trkpt>
      <trkpt lat="46.44846" lon="2.72072">
        <ele>269.9</ele>
        <time>2015-11-20T07:46:45Z</time>
      </trkpt>
      <trkpt lat="46.44846" lon="2.72054">
        <ele>270</ele>
        <time>2015-11-20T07:46:45Z</time>
      </trkpt>
      <trkpt lat="46.44844" lon="2.72046">
        <ele>270.1</ele>
        <time>2015-11-20T07:46:45Z</time>
      </trkpt>
      <trkpt lat="46.4484" lon="2.72036">
        <ele>270.4</ele>
        <time>2015-11-20T07:46:45Z</time>
      </trkpt>
      <trkpt lat="46.44836" lon="2.72025">
        <ele>270.8</ele>
        <time>2015-11-20T07:46:45Z</time>
      </trkpt>
      <trkpt lat="46.44827" lon="2.72008">
        <ele>271.4</ele>
        <time>2015-11-20T07:46:45Z</time>
      </trkpt>
      <trkpt lat="46.4481" lon="2.71985">
        <ele>273.2</ele>
        <time>2015-11-20T07:46:45Z</time>
      </trkpt>
      <trkpt lat="46.44795" lon="2.71958">
        <ele>275.3</ele>
        <time>2015-11-20T07:46:45Z</time>
      </trkpt>
      <trkpt lat="46.44785" lon="2.71934">
        <ele>277.1</ele>
        <time>2015-11-20T07:46:45Z</time>
      </trkpt>
      <trkpt lat="46.44774" lon="2.71919">
        <ele>278.4</ele>
        <time>2015-11-20T07:46:45Z</time>
      </trkpt>
      <trkpt lat="46.44768" lon="2.71904">
        <ele>280.2</ele>
        <time>2015-11-20T07:46:45Z</time>
      </trkpt>
      <trkpt lat="46.44762" lon="2.71886">
        <ele>282.3</ele>
        <time>2015-11-20T07:46:45Z</time>
      </trkpt>
      <trkpt lat="46.44752" lon="2.71868">
        <ele>284.5</ele>
        <time>2015-11-20T07:46:45Z</time>
      </trkpt>
      <trkpt lat="46.4474" lon="2.71846">
        <ele>287.5</ele>
        <time>2015-11-20T07:46:45Z</time>
      </trkpt>
      <trkpt lat="46.44731" lon="2.71831">
        <ele>289.4</ele>
        <time>2015-11-20T07:46:45Z</time>
      </trkpt>
      <trkpt lat="46.44722" lon="2.71818">
        <ele>290.7</ele>
        <time>2015-11-20T07:46:45Z</time>
      </trkpt>
      <trkpt lat="46.44718" lon="2.71816">
        <ele>291.1</ele>
        <time>2015-11-20T07:46:45Z</time>
      </trkpt>
      <trkpt lat="46.44714" lon="2.71816">
        <ele>291.3</ele>
        <time>2015-11-20T07:46:45Z</time>
      </trkpt>
      <trkpt lat="46.44705" lon="2.7182">
        <ele>291.4</ele>
        <time>2015-11-20T07:46:45Z</time>
      </trkpt>
      <trkpt lat="46.44691" lon="2.71828">
        <ele>291.9</ele>
        <time>2015-11-20T07:46:45Z</time>
      </trkpt>
      <trkpt lat="46.44675" lon="2.71838">
        <ele>292.2</ele>
        <time>2015-11-20T07:46:45Z</time>
      </trkpt>
      <trkpt lat="46.44658" lon="2.7185">
        <ele>292.2</ele>
        <time>2015-11-20T07:46:45Z</time>
      </trkpt>
      <trkpt lat="46.44642" lon="2.71866">
        <ele>291.9</ele>
        <time>2015-11-20T07:46:45Z</time>
      </trkpt>
      <trkpt lat="46.44623" lon="2.71885">
        <ele>291.6</ele>
        <time>2015-11-20T07:46:45Z</time>
      </trkpt>
      <trkpt lat="46.44613" lon="2.719">
        <ele>291.2</ele>
        <time>2015-11-20T07:46:45Z</time>
      </trkpt>
      <trkpt lat="46.44598" lon="2.7192">
        <ele>290.8</ele>
        <time>2015-11-20T07:46:45Z</time>
      </trkpt>
      <trkpt lat="46.44582" lon="2.7193">
        <ele>291</ele>
        <time>2015-11-20T07:46:45Z</time>
      </trkpt>
      <trkpt lat="46.44569" lon="2.71939">
        <ele>291.3</ele>
        <time>2015-11-20T07:46:45Z</time>
      </trkpt>
      <trkpt lat="46.44551" lon="2.71949">
        <ele>291.9</ele>
        <time>2015-11-20T07:46:45Z</time>
      </trkpt>
      <trkpt lat="46.44532" lon="2.71956">
        <ele>292.8</ele>
        <time>2015-11-20T07:46:45Z</time>
      </trkpt>
      <trkpt lat="46.44512" lon="2.71964">
        <ele>293.5</ele>
        <time>2015-11-20T07:46:45Z</time>
      </trkpt>
      <trkpt lat="46.44495" lon="2.71968">
        <ele>294.2</ele>
        <time>2015-11-20T07:46:45Z</time>
      </trkpt>
      <trkpt lat="46.44484" lon="2.71974">
        <ele>293.9</ele>
        <time>2015-11-20T07:46:45Z</time>
      </trkpt>
      <trkpt lat="46.44465" lon="2.71983">
        <ele>293.6</ele>
        <time>2015-11-20T07:46:45Z</time>
      </trkpt>
      <trkpt lat="46.44449" lon="2.71992">
        <ele>293.4</ele>
        <time>2015-11-20T07:46:45Z</time>
      </trkpt>
      <trkpt lat="46.44436" lon="2.72003">
        <ele>293.1</ele>
        <time>2015-11-20T07:46:45Z</time>
      </trkpt>
      <trkpt lat="46.44424" lon="2.72013">
        <ele>292.8</ele>
        <time>2015-11-20T07:46:45Z</time>
      </trkpt>
      <trkpt lat="46.44413" lon="2.72025">
        <ele>292.4</ele>
        <time>2015-11-20T07:46:45Z</time>
      </trkpt>
      <trkpt lat="46.44393" lon="2.72046">
        <ele>292.1</ele>
        <time>2015-11-20T07:46:45Z</time>
      </trkpt>
      <trkpt lat="46.44383" lon="2.72058">
        <ele>291.9</ele>
        <time>2015-11-20T07:46:45Z</time>
      </trkpt>
      <trkpt lat="46.44375" lon="2.72067">
        <ele>291.7</ele>
        <time>2015-11-20T07:46:45Z</time>
      </trkpt>
      <trkpt lat="46.44363" lon="2.72076">
        <ele>291.8</ele>
        <time>2015-11-20T07:46:45Z</time>
      </trkpt>
      <trkpt lat="46.4435" lon="2.72084">
        <ele>292</ele>
        <time>2015-11-20T07:46:45Z</time>
      </trkpt>
      <trkpt lat="46.44341" lon="2.72088">
        <ele>292.3</ele>
        <time>2015-11-20T07:46:45Z</time>
      </trkpt>
      <trkpt lat="46.44333" lon="2.72092">
        <ele>292.5</ele>
        <time>2015-11-20T07:46:45Z</time>
      </trkpt>
      <trkpt lat="46.44316" lon="2.72101">
        <ele>293.3</ele>
        <time>2015-11-20T07:46:45Z</time>
      </trkpt>
      <trkpt lat="46.44302" lon="2.72108">
        <ele>293.8</ele>
        <time>2015-11-20T07:46:45Z</time>
      </trkpt>
      <trkpt lat="46.44296" lon="2.72111">
        <ele>294.2</ele>
        <time>2015-11-20T07:46:45Z</time>
      </trkpt>
      <trkpt lat="46.44286" lon="2.72113">
        <ele>294.8</ele>
        <time>2015-11-20T07:46:45Z</time>
      </trkpt>
      <trkpt lat="46.44277" lon="2.72114">
        <ele>295.5</ele>
        <time>2015-11-20T07:46:45Z</time>
      </trkpt>
      <trkpt lat="46.4427" lon="2.72112">
        <ele>296.3</ele>
        <time>2015-11-20T07:46:45Z</time>
      </trkpt>
      <trkpt lat="46.44261" lon="2.72112">
        <ele>297</ele>
        <time>2015-11-20T07:46:45Z</time>
      </trkpt>
      <trkpt lat="46.44252" lon="2.72112">
        <ele>297.9</ele>
        <time>2015-11-20T07:46:45Z</time>
      </trkpt>
      <trkpt lat="46.44242" lon="2.72116">
        <ele>298</ele>
        <time>2015-11-20T07:46:45Z</time>
      </trkpt>
      <trkpt lat="46.44229" lon="2.72122">
        <ele>298.1</ele>
        <time>2015-11-20T07:46:45Z</time>
      </trkpt>
      <trkpt lat="46.44208" lon="2.72132">
        <ele>298.4</ele>
        <time>2015-11-20T07:46:45Z</time>
      </trkpt>
      <trkpt lat="46.442" lon="2.72137">
        <ele>298.5</ele>
        <time>2015-11-20T07:46:45Z</time>
      </trkpt>
      <trkpt lat="46.44195" lon="2.72138">
        <ele>298.7</ele>
        <time>2015-11-20T07:46:45Z</time>
      </trkpt>
      <trkpt lat="46.44185" lon="2.72138">
        <ele>299.2</ele>
        <time>2015-11-20T07:46:45Z</time>
      </trkpt>
      <trkpt lat="46.44172" lon="2.72138">
        <ele>299.8</ele>
        <time>2015-11-20T07:46:45Z</time>
      </trkpt>
      <trkpt lat="46.44162" lon="2.72137">
        <ele>300.1</ele>
        <time>2015-11-20T07:46:45Z</time>
      </trkpt>
      <trkpt lat="46.44154" lon="2.72138">
        <ele>300.1</ele>
        <time>2015-11-20T07:46:45Z</time>
      </trkpt>
      <trkpt lat="46.44148" lon="2.72141">
        <ele>300.1</ele>
        <time>2015-11-20T07:46:45Z</time>
      </trkpt>
      <trkpt lat="46.44138" lon="2.72144">
        <ele>300.1</ele>
        <time>2015-11-20T07:46:45Z</time>
      </trkpt>
      <trkpt lat="46.44128" lon="2.72148">
        <ele>300.1</ele>
        <time>2015-11-20T07:46:45Z</time>
      </trkpt>
      <trkpt lat="46.44119" lon="2.72154">
        <ele>299.9</ele>
        <time>2015-11-20T07:46:45Z</time>
      </trkpt>
      <trkpt lat="46.44103" lon="2.72174">
        <ele>299.4</ele>
        <time>2015-11-20T07:46:45Z</time>
      </trkpt>
      <trkpt lat="46.44083" lon="2.72193">
        <ele>298.8</ele>
        <time>2015-11-20T07:46:45Z</time>
      </trkpt>
      <trkpt lat="46.44069" lon="2.72206">
        <ele>298.8</ele>
        <time>2015-11-20T07:46:45Z</time>
      </trkpt>
      <trkpt lat="46.44056" lon="2.72214">
        <ele>299.1</ele>
        <time>2015-11-20T07:46:45Z</time>
      </trkpt>
      <trkpt lat="46.44041" lon="2.7222">
        <ele>299.5</ele>
        <time>2015-11-20T07:46:45Z</time>
      </trkpt>
      <trkpt lat="46.44023" lon="2.72229">
        <ele>299.9</ele>
        <time>2015-11-20T07:46:45Z</time>
      </trkpt>
      <trkpt lat="46.44015" lon="2.72234">
        <ele>300.1</ele>
        <time>2015-11-20T07:46:45Z</time>
      </trkpt>
      <trkpt lat="46.43994" lon="2.72244">
        <ele>300.4</ele>
        <time>2015-11-20T07:46:45Z</time>
      </trkpt>
      <trkpt lat="46.43978" lon="2.7225">
        <ele>300.5</ele>
        <time>2015-11-20T07:46:45Z</time>
      </trkpt>
      <trkpt lat="46.43958" lon="2.72261">
        <ele>300.7</ele>
        <time>2015-11-20T07:46:45Z</time>
      </trkpt>
      <trkpt lat="46.4394" lon="2.72269">
        <ele>300.9</ele>
        <time>2015-11-20T07:46:45Z</time>
      </trkpt>
      <trkpt lat="46.43919" lon="2.72276">
        <ele>301.3</ele>
        <time>2015-11-20T07:46:45Z</time>
      </trkpt>
      <trkpt lat="46.43895" lon="2.72289">
        <ele>302.4</ele>
        <time>2015-11-20T07:46:45Z</time>
      </trkpt>
      <trkpt lat="46.43884" lon="2.72294">
        <ele>302.9</ele>
        <time>2015-11-20T07:46:45Z</time>
      </trkpt>
      <trkpt lat="46.43879" lon="2.72294">
        <ele>303.2</ele>
        <time>2015-11-20T07:46:45Z</time>
      </trkpt>
      <trkpt lat="46.43876" lon="2.72289">
        <ele>303.5</ele>
        <time>2015-11-20T07:46:45Z</time>
      </trkpt>
      <trkpt lat="46.43872" lon="2.72279">
        <ele>304</ele>
        <time>2015-11-20T07:46:45Z</time>
      </trkpt>
      <trkpt lat="46.43869" lon="2.72273">
        <ele>304.4</ele>
        <time>2015-11-20T07:46:45Z</time>
      </trkpt>
      <trkpt lat="46.43864" lon="2.72262">
        <ele>304.9</ele>
        <time>2015-11-20T07:46:45Z</time>
      </trkpt>
      <trkpt lat="46.4386" lon="2.72254">
        <ele>305.3</ele>
        <time>2015-11-20T07:46:45Z</time>
      </trkpt>
      <trkpt lat="46.43854" lon="2.7224">
        <ele>305.8</ele>
        <time>2015-11-20T07:46:45Z</time>
      </trkpt>
      <trkpt lat="46.43848" lon="2.7223">
        <ele>306.2</ele>
        <time>2015-11-20T07:46:45Z</time>
      </trkpt>
      <trkpt lat="46.43842" lon="2.72217">
        <ele>306.6</ele>
        <time>2015-11-20T07:46:45Z</time>
      </trkpt>
      <trkpt lat="46.43839" lon="2.7221">
        <ele>306.7</ele>
        <time>2015-11-20T07:46:45Z</time>
      </trkpt>
      <trkpt lat="46.43836" lon="2.722">
        <ele>306.9</ele>
        <time>2015-11-20T07:46:45Z</time>
      </trkpt>
      <trkpt lat="46.43833" lon="2.7219">
        <ele>307</ele>
        <time>2015-11-20T07:46:45Z</time>
      </trkpt>
      <trkpt lat="46.43832" lon="2.7218">
        <ele>307</ele>
        <time>2015-11-20T07:46:45Z</time>
      </trkpt>
      <trkpt lat="46.4383" lon="2.72169">
        <ele>307</ele>
        <time>2015-11-20T07:46:45Z</time>
      </trkpt>
      <trkpt lat="46.43828" lon="2.72154">
        <ele>307.1</ele>
        <time>2015-11-20T07:46:45Z</time>
      </trkpt>
      <trkpt lat="46.43828" lon="2.72143">
        <ele>307.1</ele>
        <time>2015-11-20T07:46:45Z</time>
      </trkpt>
      <trkpt lat="46.43826" lon="2.72139">
        <ele>307.1</ele>
        <time>2015-11-20T07:46:45Z</time>
      </trkpt>
      <trkpt lat="46.43822" lon="2.72137">
        <ele>307.1</ele>
        <time>2015-11-20T07:46:45Z</time>
      </trkpt>
      <trkpt lat="46.43816" lon="2.7214">
        <ele>307.2</ele>
        <time>2015-11-20T07:46:45Z</time>
      </trkpt>
      <trkpt lat="46.43805" lon="2.72143">
        <ele>307.3</ele>
        <time>2015-11-20T07:46:45Z</time>
      </trkpt>
      <trkpt lat="46.43799" lon="2.72146">
        <ele>307.4</ele>
        <time>2015-11-20T07:46:45Z</time>
      </trkpt>
      <trkpt lat="46.43796" lon="2.72148">
        <ele>307.4</ele>
        <time>2015-11-20T07:46:45Z</time>
      </trkpt>
      <trkpt lat="46.43792" lon="2.72149">
        <ele>307.5</ele>
        <time>2015-11-20T07:46:45Z</time>
      </trkpt>
      <trkpt lat="46.43787" lon="2.72148">
        <ele>307.6</ele>
        <time>2015-11-20T07:46:45Z</time>
      </trkpt>
      <trkpt lat="46.43782" lon="2.72145">
        <ele>307.6</ele>
        <time>2015-11-20T07:46:45Z</time>
      </trkpt>
      <trkpt lat="46.43778" lon="2.72138">
        <ele>307.7</ele>
        <time>2015-11-20T07:46:45Z</time>
      </trkpt>
      <trkpt lat="46.43774" lon="2.72131">
        <ele>307.7</ele>
        <time>2015-11-20T07:46:45Z</time>
      </trkpt>
      <trkpt lat="46.43765" lon="2.72112">
        <ele>307.8</ele>
        <time>2015-11-20T07:46:45Z</time>
      </trkpt>
      <trkpt lat="46.43755" lon="2.72093">
        <ele>307.9</ele>
        <time>2015-11-20T07:46:45Z</time>
      </trkpt>
      <trkpt lat="46.43745" lon="2.72076">
        <ele>308</ele>
        <time>2015-11-20T07:46:45Z</time>
      </trkpt>
      <trkpt lat="46.43735" lon="2.72058">
        <ele>308.1</ele>
        <time>2015-11-20T07:46:45Z</time>
      </trkpt>
      <trkpt lat="46.43727" lon="2.72047">
        <ele>308.1</ele>
        <time>2015-11-20T07:46:45Z</time>
      </trkpt>
      <trkpt lat="46.43712" lon="2.72015">
        <ele>308.1</ele>
        <time>2015-11-20T07:46:45Z</time>
      </trkpt>
      <trkpt lat="46.43694" lon="2.71979">
        <ele>308.2</ele>
        <time>2015-11-20T07:46:45Z</time>
      </trkpt>
      <trkpt lat="46.43678" lon="2.7195">
        <ele>308.2</ele>
        <time>2015-11-20T07:46:45Z</time>
      </trkpt>
      <trkpt lat="46.43661" lon="2.7191">
        <ele>308</ele>
        <time>2015-11-20T07:46:45Z</time>
      </trkpt>
      <trkpt lat="46.43643" lon="2.71865">
        <ele>307.6</ele>
        <time>2015-11-20T07:46:45Z</time>
      </trkpt>
      <trkpt lat="46.43627" lon="2.71824">
        <ele>307.2</ele>
        <time>2015-11-20T07:46:45Z</time>
      </trkpt>
      <trkpt lat="46.43619" lon="2.71806">
        <ele>307</ele>
        <time>2015-11-20T07:46:45Z</time>
      </trkpt>
      <trkpt lat="46.43597" lon="2.71749">
        <ele>306.5</ele>
        <time>2015-11-20T07:46:45Z</time>
      </trkpt>
      <trkpt lat="46.43584" lon="2.71711">
        <ele>307.4</ele>
        <time>2015-11-20T07:46:45Z</time>
      </trkpt>
      <trkpt lat="46.43569" lon="2.7168">
        <ele>308.6</ele>
        <time>2015-11-20T07:46:45Z</time>
      </trkpt>
      <trkpt lat="46.43558" lon="2.71659">
        <ele>309.2</ele>
        <time>2015-11-20T07:46:45Z</time>
      </trkpt>
      <trkpt lat="46.43548" lon="2.71638">
        <ele>309.6</ele>
        <time>2015-11-20T07:46:45Z</time>
      </trkpt>
      <trkpt lat="46.43538" lon="2.71638">
        <ele>310</ele>
        <time>2015-11-20T07:46:45Z</time>
      </trkpt>
      <trkpt lat="46.43531" lon="2.71626">
        <ele>310.2</ele>
        <time>2015-11-20T07:46:45Z</time>
      </trkpt>
      <trkpt lat="46.435" lon="2.71584">
        <ele>311</ele>
        <time>2015-11-20T07:46:45Z</time>
      </trkpt>
      <trkpt lat="46.43475" lon="2.71552">
        <ele>312.4</ele>
        <time>2015-11-20T07:46:45Z</time>
      </trkpt>
      <trkpt lat="46.43448" lon="2.7152">
        <ele>313.8</ele>
        <time>2015-11-20T07:46:45Z</time>
      </trkpt>
      <trkpt lat="46.43431" lon="2.71499">
        <ele>314.5</ele>
        <time>2015-11-20T07:46:45Z</time>
      </trkpt>
      <trkpt lat="46.43416" lon="2.71477">
        <ele>314.7</ele>
        <time>2015-11-20T07:46:45Z</time>
      </trkpt>
      <trkpt lat="46.43375" lon="2.71518">
        <ele>315.7</ele>
        <time>2015-11-20T07:46:45Z</time>
      </trkpt>
      <trkpt lat="46.43325" lon="2.71568">
        <ele>317.6</ele>
        <time>2015-11-20T07:46:45Z</time>
      </trkpt>
      <trkpt lat="46.43285" lon="2.71609">
        <ele>318.3</ele>
        <time>2015-11-20T07:46:45Z</time>
      </trkpt>
      <trkpt lat="46.43252" lon="2.71645">
        <ele>319.4</ele>
        <time>2015-11-20T07:46:45Z</time>
      </trkpt>
      <trkpt lat="46.43206" lon="2.71693">
        <ele>318.6</ele>
        <time>2015-11-20T07:46:45Z</time>
      </trkpt>
      <trkpt lat="46.4317" lon="2.71721">
        <ele>318</ele>
        <time>2015-11-20T07:46:45Z</time>
      </trkpt>
      <trkpt lat="46.43141" lon="2.71747">
        <ele>317.7</ele>
        <time>2015-11-20T07:46:45Z</time>
      </trkpt>
      <trkpt lat="46.43118" lon="2.71762">
        <ele>317.3</ele>
        <time>2015-11-20T07:46:45Z</time>
      </trkpt>
      <trkpt lat="46.43085" lon="2.71786">
        <ele>316.6</ele>
        <time>2015-11-20T07:46:45Z</time>
      </trkpt>
      <trkpt lat="46.43071" lon="2.71801">
        <ele>315.9</ele>
        <time>2015-11-20T07:46:45Z</time>
      </trkpt>
      <trkpt lat="46.43053" lon="2.71819">
        <ele>315.1</ele>
        <time>2015-11-20T07:46:45Z</time>
      </trkpt>
      <trkpt lat="46.43036" lon="2.71831">
        <ele>314.3</ele>
        <time>2015-11-20T07:46:45Z</time>
      </trkpt>
      <trkpt lat="46.43016" lon="2.71838">
        <ele>313.6</ele>
        <time>2015-11-20T07:46:45Z</time>
      </trkpt>
      <trkpt lat="46.42999" lon="2.71842">
        <ele>313</ele>
        <time>2015-11-20T07:46:45Z</time>
      </trkpt>
      <trkpt lat="46.4298" lon="2.71847">
        <ele>312.2</ele>
        <time>2015-11-20T07:46:45Z</time>
      </trkpt>
      <trkpt lat="46.42951" lon="2.7185">
        <ele>311.1</ele>
        <time>2015-11-20T07:46:45Z</time>
      </trkpt>
      <trkpt lat="46.42925" lon="2.71851">
        <ele>310.1</ele>
        <time>2015-11-20T07:46:45Z</time>
      </trkpt>
      <trkpt lat="46.42901" lon="2.71859">
        <ele>309.1</ele>
        <time>2015-11-20T07:46:45Z</time>
      </trkpt>
      <trkpt lat="46.4287" lon="2.71873">
        <ele>307.6</ele>
        <time>2015-11-20T07:46:45Z</time>
      </trkpt>
      <trkpt lat="46.42843" lon="2.71887">
        <ele>306.1</ele>
        <time>2015-11-20T07:46:45Z</time>
      </trkpt>
      <trkpt lat="46.42804" lon="2.71902">
        <ele>304.3</ele>
        <time>2015-11-20T07:46:45Z</time>
      </trkpt>
      <trkpt lat="46.42783" lon="2.7191">
        <ele>303.4</ele>
        <time>2015-11-20T07:46:45Z</time>
      </trkpt>
      <trkpt lat="46.42737" lon="2.71924">
        <ele>301.8</ele>
        <time>2015-11-20T07:46:45Z</time>
      </trkpt>
      <trkpt lat="46.42723" lon="2.71931">
        <ele>301.6</ele>
        <time>2015-11-20T07:46:45Z</time>
      </trkpt>
      <trkpt lat="46.42705" lon="2.71939">
        <ele>301.3</ele>
        <time>2015-11-20T07:46:45Z</time>
      </trkpt>
      <trkpt lat="46.42688" lon="2.7195">
        <ele>301.2</ele>
        <time>2015-11-20T07:46:45Z</time>
      </trkpt>
      <trkpt lat="46.42671" lon="2.71961">
        <ele>301</ele>
        <time>2015-11-20T07:46:45Z</time>
      </trkpt>
      <trkpt lat="46.42634" lon="2.71965">
        <ele>299.8</ele>
        <time>2015-11-20T07:46:45Z</time>
      </trkpt>
      <trkpt lat="46.42619" lon="2.71969">
        <ele>299.3</ele>
        <time>2015-11-20T07:46:45Z</time>
      </trkpt>
      <trkpt lat="46.42581" lon="2.71975">
        <ele>297.9</ele>
        <time>2015-11-20T07:46:45Z</time>
      </trkpt>
      <trkpt lat="46.42556" lon="2.71978">
        <ele>297</ele>
        <time>2015-11-20T07:46:45Z</time>
      </trkpt>
      <trkpt lat="46.42537" lon="2.71985">
        <ele>296.3</ele>
        <time>2015-11-20T07:46:45Z</time>
      </trkpt>
      <trkpt lat="46.4252" lon="2.71993">
        <ele>295.7</ele>
        <time>2015-11-20T07:46:45Z</time>
      </trkpt>
      <trkpt lat="46.42498" lon="2.72003">
        <ele>295</ele>
        <time>2015-11-20T07:46:45Z</time>
      </trkpt>
      <trkpt lat="46.42482" lon="2.72015">
        <ele>294.7</ele>
        <time>2015-11-20T07:46:45Z</time>
      </trkpt>
      <trkpt lat="46.42457" lon="2.72034">
        <ele>294.3</ele>
        <time>2015-11-20T07:46:45Z</time>
      </trkpt>
      <trkpt lat="46.42446" lon="2.7204">
        <ele>294.1</ele>
        <time>2015-11-20T07:46:45Z</time>
      </trkpt>
      <trkpt lat="46.42438" lon="2.72041">
        <ele>293.9</ele>
        <time>2015-11-20T07:46:45Z</time>
      </trkpt>
      <trkpt lat="46.42428" lon="2.72039">
        <ele>293.7</ele>
        <time>2015-11-20T07:46:45Z</time>
      </trkpt>
      <trkpt lat="46.42425" lon="2.72039">
        <ele>293.7</ele>
        <time>2015-11-20T07:46:45Z</time>
      </trkpt>
      <trkpt lat="46.42416" lon="2.72041">
        <ele>293.5</ele>
        <time>2015-11-20T07:46:45Z</time>
      </trkpt>
      <trkpt lat="46.42398" lon="2.72047">
        <ele>293.1</ele>
        <time>2015-11-20T07:46:45Z</time>
      </trkpt>
      <trkpt lat="46.42379" lon="2.72047">
        <ele>292.8</ele>
        <time>2015-11-20T07:46:45Z</time>
      </trkpt>
      <trkpt lat="46.42358" lon="2.72042">
        <ele>292.4</ele>
        <time>2015-11-20T07:46:45Z</time>
      </trkpt>
      <trkpt lat="46.42318" lon="2.72033">
        <ele>292.2</ele>
        <time>2015-11-20T07:46:45Z</time>
      </trkpt>
      <trkpt lat="46.42301" lon="2.72021">
        <ele>292.4</ele>
        <time>2015-11-20T07:46:45Z</time>
      </trkpt>
      <trkpt lat="46.4229" lon="2.72013">
        <ele>292.5</ele>
        <time>2015-11-20T07:46:45Z</time>
      </trkpt>
      <trkpt lat="46.42249" lon="2.72009">
        <ele>293</ele>
        <time>2015-11-20T07:46:45Z</time>
      </trkpt>
      <trkpt lat="46.42197" lon="2.72002">
        <ele>294.3</ele>
        <time>2015-11-20T07:46:45Z</time>
      </trkpt>
      <trkpt lat="46.42154" lon="2.71997">
        <ele>295.7</ele>
        <time>2015-11-20T07:46:45Z</time>
      </trkpt>
      <trkpt lat="46.42125" lon="2.71992">
        <ele>297.1</ele>
        <time>2015-11-20T07:46:45Z</time>
      </trkpt>
      <trkpt lat="46.42088" lon="2.71986">
        <ele>298.9</ele>
        <time>2015-11-20T07:46:45Z</time>
      </trkpt>
      <trkpt lat="46.42078" lon="2.71987">
        <ele>299.4</ele>
        <time>2015-11-20T07:46:45Z</time>
      </trkpt>
      <trkpt lat="46.42072" lon="2.71992">
        <ele>299.6</ele>
        <time>2015-11-20T07:46:45Z</time>
      </trkpt>
      <trkpt lat="46.42062" lon="2.71994">
        <ele>300.1</ele>
        <time>2015-11-20T07:46:45Z</time>
      </trkpt>
      <trkpt lat="46.42043" lon="2.71996">
        <ele>301</ele>
        <time>2015-11-20T07:46:45Z</time>
      </trkpt>
      <trkpt lat="46.42024" lon="2.71997">
        <ele>301.9</ele>
        <time>2015-11-20T07:46:45Z</time>
      </trkpt>
      <trkpt lat="46.42016" lon="2.72">
        <ele>302.3</ele>
        <time>2015-11-20T07:46:45Z</time>
      </trkpt>
      <trkpt lat="46.42004" lon="2.72008">
        <ele>302.6</ele>
        <time>2015-11-20T07:46:45Z</time>
      </trkpt>
      <trkpt lat="46.41995" lon="2.72019">
        <ele>302.7</ele>
        <time>2015-11-20T07:46:45Z</time>
      </trkpt>
      <trkpt lat="46.41977" lon="2.72016">
        <ele>303.3</ele>
        <time>2015-11-20T07:46:45Z</time>
      </trkpt>
      <trkpt lat="46.41971" lon="2.72033">
        <ele>303.2</ele>
        <time>2015-11-20T07:46:45Z</time>
      </trkpt>
      <trkpt lat="46.41958" lon="2.72065">
        <ele>303.2</ele>
        <time>2015-11-20T07:46:45Z</time>
      </trkpt>
      <trkpt lat="46.41949" lon="2.72088">
        <ele>303.5</ele>
        <time>2015-11-20T07:46:45Z</time>
      </trkpt>
      <trkpt lat="46.41943" lon="2.72102">
        <ele>303.8</ele>
        <time>2015-11-20T07:46:45Z</time>
      </trkpt>
      <trkpt lat="46.41926" lon="2.72145">
        <ele>304.6</ele>
        <time>2015-11-20T07:46:45Z</time>
      </trkpt>
      <trkpt lat="46.41914" lon="2.72172">
        <ele>304.9</ele>
        <time>2015-11-20T07:46:45Z</time>
      </trkpt>
      <trkpt lat="46.41901" lon="2.72198">
        <ele>304.4</ele>
        <time>2015-11-20T07:46:45Z</time>
      </trkpt>
      <trkpt lat="46.41894" lon="2.72213">
        <ele>304.1</ele>
        <time>2015-11-20T07:46:45Z</time>
      </trkpt>
      <trkpt lat="46.41887" lon="2.72233">
        <ele>303.8</ele>
        <time>2015-11-20T07:46:45Z</time>
      </trkpt>
      <trkpt lat="46.41878" lon="2.72257">
        <ele>303.3</ele>
        <time>2015-11-20T07:46:45Z</time>
      </trkpt>
      <trkpt lat="46.41873" lon="2.7228">
        <ele>302.8</ele>
        <time>2015-11-20T07:46:45Z</time>
      </trkpt>
      <trkpt lat="46.41867" lon="2.72305">
        <ele>302.3</ele>
        <time>2015-11-20T07:46:45Z</time>
      </trkpt>
      <trkpt lat="46.41862" lon="2.72333">
        <ele>301.7</ele>
        <time>2015-11-20T07:46:45Z</time>
      </trkpt>
      <trkpt lat="46.41858" lon="2.72362">
        <ele>301</ele>
        <time>2015-11-20T07:46:45Z</time>
      </trkpt>
      <trkpt lat="46.41856" lon="2.72381">
        <ele>300.6</ele>
        <time>2015-11-20T07:46:45Z</time>
      </trkpt>
      <trkpt lat="46.41856" lon="2.72392">
        <ele>300.3</ele>
        <time>2015-11-20T07:46:45Z</time>
      </trkpt>
      <trkpt lat="46.4185" lon="2.72405">
        <ele>300.1</ele>
        <time>2015-11-20T07:46:45Z</time>
      </trkpt>
      <trkpt lat="46.41837" lon="2.7243">
        <ele>299.6</ele>
        <time>2015-11-20T07:46:45Z</time>
      </trkpt>
      <trkpt lat="46.41827" lon="2.72447">
        <ele>299.3</ele>
        <time>2015-11-20T07:46:45Z</time>
      </trkpt>
      <trkpt lat="46.41804" lon="2.72486">
        <ele>298.9</ele>
        <time>2015-11-20T07:46:45Z</time>
      </trkpt>
      <trkpt lat="46.4179" lon="2.72511">
        <ele>298.6</ele>
        <time>2015-11-20T07:46:45Z</time>
      </trkpt>
      <trkpt lat="46.41785" lon="2.72513">
        <ele>298.6</ele>
        <time>2015-11-20T07:46:45Z</time>
      </trkpt>
      <trkpt lat="46.41781" lon="2.72513">
        <ele>298.8</ele>
        <time>2015-11-20T07:46:45Z</time>
      </trkpt>
      <trkpt lat="46.41777" lon="2.72516">
        <ele>298.8</ele>
        <time>2015-11-20T07:46:45Z</time>
      </trkpt>
      <trkpt lat="46.41771" lon="2.72524">
        <ele>298.7</ele>
        <time>2015-11-20T07:46:45Z</time>
      </trkpt>
      <trkpt lat="46.41758" lon="2.72544">
        <ele>298.6</ele>
        <time>2015-11-20T07:46:45Z</time>
      </trkpt>
      <trkpt lat="46.41752" lon="2.72558">
        <ele>298.5</ele>
        <time>2015-11-20T07:46:45Z</time>
      </trkpt>
      <trkpt lat="46.41747" lon="2.72563">
        <ele>298.5</ele>
        <time>2015-11-20T07:46:45Z</time>
      </trkpt>
      <trkpt lat="46.41742" lon="2.72567">
        <ele>298.5</ele>
        <time>2015-11-20T07:46:45Z</time>
      </trkpt>
      <trkpt lat="46.41737" lon="2.72568">
        <ele>298.6</ele>
        <time>2015-11-20T07:46:45Z</time>
      </trkpt>
      <trkpt lat="46.41733" lon="2.72567">
        <ele>298.7</ele>
        <time>2015-11-20T07:46:45Z</time>
      </trkpt>
      <trkpt lat="46.41729" lon="2.72565">
        <ele>298.8</ele>
        <time>2015-11-20T07:46:45Z</time>
      </trkpt>
      <trkpt lat="46.41724" lon="2.72563">
        <ele>298.9</ele>
        <time>2015-11-20T07:46:45Z</time>
      </trkpt>
      <trkpt lat="46.41722" lon="2.72568">
        <ele>298.8</ele>
        <time>2015-11-20T07:46:45Z</time>
      </trkpt>
      <trkpt lat="46.4171" lon="2.72572">
        <ele>298.8</ele>
        <time>2015-11-20T07:46:45Z</time>
      </trkpt>
      <trkpt lat="46.41693" lon="2.72581">
        <ele>298.8</ele>
        <time>2015-11-20T07:46:45Z</time>
      </trkpt>
      <trkpt lat="46.41686" lon="2.72583">
        <ele>298.8</ele>
        <time>2015-11-20T07:46:45Z</time>
      </trkpt>
      <trkpt lat="46.41681" lon="2.72583">
        <ele>298.9</ele>
        <time>2015-11-20T07:46:45Z</time>
      </trkpt>
      <trkpt lat="46.41667" lon="2.72599">
        <ele>298.6</ele>
        <time>2015-11-20T07:46:45Z</time>
      </trkpt>
      <trkpt lat="46.41637" lon="2.72634">
        <ele>297.1</ele>
        <time>2015-11-20T07:46:45Z</time>
      </trkpt>
      <trkpt lat="46.41618" lon="2.72656">
        <ele>296.5</ele>
        <time>2015-11-20T07:46:45Z</time>
      </trkpt>
      <trkpt lat="46.41593" lon="2.7268">
        <ele>296.3</ele>
        <time>2015-11-20T07:46:45Z</time>
      </trkpt>
      <trkpt lat="46.41586" lon="2.72689">
        <ele>296.3</ele>
        <time>2015-11-20T07:46:45Z</time>
      </trkpt>
      <trkpt lat="46.41564" lon="2.72706">
        <ele>296.1</ele>
        <time>2015-11-20T07:46:45Z</time>
      </trkpt>
      <trkpt lat="46.41554" lon="2.72714">
        <ele>296.1</ele>
        <time>2015-11-20T07:46:45Z</time>
      </trkpt>
      <trkpt lat="46.41533" lon="2.72724">
        <ele>295.9</ele>
        <time>2015-11-20T07:46:45Z</time>
      </trkpt>
      <trkpt lat="46.41516" lon="2.72735">
        <ele>295.9</ele>
        <time>2015-11-20T07:46:45Z</time>
      </trkpt>
      <trkpt lat="46.415" lon="2.72745">
        <ele>295.9</ele>
        <time>2015-11-20T07:46:45Z</time>
      </trkpt>
      <trkpt lat="46.41481" lon="2.72759">
        <ele>294.9</ele>
        <time>2015-11-20T07:46:45Z</time>
      </trkpt>
      <trkpt lat="46.41463" lon="2.72773">
        <ele>294</ele>
        <time>2015-11-20T07:46:45Z</time>
      </trkpt>
      <trkpt lat="46.41452" lon="2.72784">
        <ele>293.6</ele>
        <time>2015-11-20T07:46:45Z</time>
      </trkpt>
      <trkpt lat="46.41444" lon="2.72793">
        <ele>293.3</ele>
        <time>2015-11-20T07:46:45Z</time>
      </trkpt>
      <trkpt lat="46.41421" lon="2.72812">
        <ele>292.6</ele>
        <time>2015-11-20T07:46:45Z</time>
      </trkpt>
      <trkpt lat="46.41394" lon="2.72853">
        <ele>291.7</ele>
        <time>2015-11-20T07:46:45Z</time>
      </trkpt>
      <trkpt lat="46.41339" lon="2.72895">
        <ele>289.5</ele>
        <time>2015-11-20T07:46:45Z</time>
      </trkpt>
      <trkpt lat="46.41316" lon="2.72896">
        <ele>288.1</ele>
        <time>2015-11-20T07:46:45Z</time>
      </trkpt>
      <trkpt lat="46.41291" lon="2.72902">
        <ele>286.6</ele>
        <time>2015-11-20T07:46:45Z</time>
      </trkpt>
      <trkpt lat="46.41275" lon="2.72912">
        <ele>285.7</ele>
        <time>2015-11-20T07:46:45Z</time>
      </trkpt>
      <trkpt lat="46.41247" lon="2.72946">
        <ele>283.4</ele>
        <time>2015-11-20T07:46:45Z</time>
      </trkpt>
      <trkpt lat="46.41221" lon="2.72982">
        <ele>283.1</ele>
        <time>2015-11-20T07:46:45Z</time>
      </trkpt>
      <trkpt lat="46.41173" lon="2.72997">
        <ele>283.9</ele>
        <time>2015-11-20T07:46:45Z</time>
      </trkpt>
      <trkpt lat="46.41106" lon="2.73033">
        <ele>288.4</ele>
        <time>2015-11-20T07:46:45Z</time>
      </trkpt>
      <trkpt lat="46.41076" lon="2.73053">
        <ele>289.2</ele>
        <time>2015-11-20T07:46:45Z</time>
      </trkpt>
      <trkpt lat="46.41023" lon="2.72995">
        <ele>289.3</ele>
        <time>2015-11-20T07:46:45Z</time>
      </trkpt>
      <trkpt lat="46.40949" lon="2.72892">
        <ele>287</ele>
        <time>2015-11-20T07:46:45Z</time>
      </trkpt>
      <trkpt lat="46.40935" lon="2.72872">
        <ele>286.3</ele>
        <time>2015-11-20T07:46:45Z</time>
      </trkpt>
      <trkpt lat="46.40926" lon="2.7286">
        <ele>285.9</ele>
        <time>2015-11-20T07:46:45Z</time>
      </trkpt>
      <trkpt lat="46.40922" lon="2.72859">
        <ele>285.7</ele>
        <time>2015-11-20T07:46:45Z</time>
      </trkpt>
      <trkpt lat="46.40918" lon="2.72858">
        <ele>285.5</ele>
        <time>2015-11-20T07:46:45Z</time>
      </trkpt>
      <trkpt lat="46.40921" lon="2.72872">
        <ele>285.3</ele>
        <time>2015-11-20T07:46:45Z</time>
      </trkpt>
      <trkpt lat="46.40921" lon="2.72882">
        <ele>285.1</ele>
        <time>2015-11-20T07:46:45Z</time>
      </trkpt>
      <trkpt lat="46.40919" lon="2.72892">
        <ele>284.8</ele>
        <time>2015-11-20T07:46:45Z</time>
      </trkpt>
      <trkpt lat="46.40914" lon="2.72903">
        <ele>284.2</ele>
        <time>2015-11-20T07:46:45Z</time>
      </trkpt>
      <trkpt lat="46.40909" lon="2.72914">
        <ele>283.5</ele>
        <time>2015-11-20T07:46:45Z</time>
      </trkpt>
      <trkpt lat="46.40901" lon="2.72929">
        <ele>282.4</ele>
        <time>2015-11-20T07:46:45Z</time>
      </trkpt>
      <trkpt lat="46.40894" lon="2.72943">
        <ele>281.5</ele>
        <time>2015-11-20T07:46:45Z</time>
      </trkpt>
      <trkpt lat="46.4089" lon="2.72956">
        <ele>281</ele>
        <time>2015-11-20T07:46:45Z</time>
      </trkpt>
      <trkpt lat="46.40883" lon="2.72971">
        <ele>280.3</ele>
        <time>2015-11-20T07:46:45Z</time>
      </trkpt>
      <trkpt lat="46.40878" lon="2.72981">
        <ele>279.9</ele>
        <time>2015-11-20T07:46:45Z</time>
      </trkpt>
      <trkpt lat="46.4087" lon="2.72976">
        <ele>279.8</ele>
        <time>2015-11-20T07:46:45Z</time>
      </trkpt>
      <trkpt lat="46.40863" lon="2.72972">
        <ele>279.6</ele>
        <time>2015-11-20T07:46:45Z</time>
      </trkpt>
      <trkpt lat="46.40853" lon="2.72971">
        <ele>279.3</ele>
        <time>2015-11-20T07:46:45Z</time>
      </trkpt>
      <trkpt lat="46.40844" lon="2.72972">
        <ele>279</ele>
        <time>2015-11-20T07:46:45Z</time>
      </trkpt>
      <trkpt lat="46.4083" lon="2.72975">
        <ele>278.9</ele>
        <time>2015-11-20T07:46:45Z</time>
      </trkpt>
      <trkpt lat="46.4081" lon="2.72981">
        <ele>280.2</ele>
        <time>2015-11-20T07:46:45Z</time>
      </trkpt>
      <trkpt lat="46.4079" lon="2.72986">
        <ele>281.6</ele>
        <time>2015-11-20T07:46:45Z</time>
      </trkpt>
      <trkpt lat="46.40766" lon="2.7299">
        <ele>283</ele>
        <time>2015-11-20T07:46:45Z</time>
      </trkpt>
      <trkpt lat="46.40733" lon="2.73">
        <ele>284.4</ele>
        <time>2015-11-20T07:46:45Z</time>
      </trkpt>
      <trkpt lat="46.40672" lon="2.73016">
        <ele>286.2</ele>
        <time>2015-11-20T07:46:45Z</time>
      </trkpt>
      <trkpt lat="46.4063" lon="2.73027">
        <ele>287.7</ele>
        <time>2015-11-20T07:46:45Z</time>
      </trkpt>
      <trkpt lat="46.4059" lon="2.73039">
        <ele>289.2</ele>
        <time>2015-11-20T07:46:45Z</time>
      </trkpt>
      <trkpt lat="46.40532" lon="2.73053">
        <ele>292.2</ele>
        <time>2015-11-20T07:46:45Z</time>
      </trkpt>
      <trkpt lat="46.40496" lon="2.73063">
        <ele>293.8</ele>
        <time>2015-11-20T07:46:45Z</time>
      </trkpt>
      <trkpt lat="46.40484" lon="2.73067">
        <ele>294</ele>
        <time>2015-11-20T07:46:45Z</time>
      </trkpt>
      <trkpt lat="46.40454" lon="2.73074">
        <ele>294.4</ele>
        <time>2015-11-20T07:46:45Z</time>
      </trkpt>
      <trkpt lat="46.4046" lon="2.73093">
        <ele>294.4</ele>
        <time>2015-11-20T07:46:45Z</time>
      </trkpt>
      <trkpt lat="46.40472" lon="2.73124">
        <ele>293.8</ele>
        <time>2015-11-20T07:46:45Z</time>
      </trkpt>
      <trkpt lat="46.40492" lon="2.73166">
        <ele>293.1</ele>
        <time>2015-11-20T07:46:45Z</time>
      </trkpt>
      <trkpt lat="46.40512" lon="2.73199">
        <ele>292</ele>
        <time>2015-11-20T07:46:45Z</time>
      </trkpt>
      <trkpt lat="46.40545" lon="2.73251">
        <ele>289.9</ele>
        <time>2015-11-20T07:46:45Z</time>
      </trkpt>
      <trkpt lat="46.40568" lon="2.73282">
        <ele>290.1</ele>
        <time>2015-11-20T07:46:45Z</time>
      </trkpt>
      <trkpt lat="46.4059" lon="2.73312">
        <ele>290.4</ele>
        <time>2015-11-20T07:46:45Z</time>
      </trkpt>
      <trkpt lat="46.40594" lon="2.73316">
        <ele>290.4</ele>
        <time>2015-11-20T07:46:45Z</time>
      </trkpt>
      <trkpt lat="46.40602" lon="2.73316">
        <ele>290.3</ele>
        <time>2015-11-20T07:46:45Z</time>
      </trkpt>
      <trkpt lat="46.40608" lon="2.7332">
        <ele>290.3</ele>
        <time>2015-11-20T07:46:45Z</time>
      </trkpt>
      <trkpt lat="46.40611" lon="2.73327">
        <ele>290.5</ele>
        <time>2015-11-20T07:46:45Z</time>
      </trkpt>
      <trkpt lat="46.40612" lon="2.73337">
        <ele>290.9</ele>
        <time>2015-11-20T07:46:45Z</time>
      </trkpt>
      <trkpt lat="46.40611" lon="2.73346">
        <ele>291.6</ele>
        <time>2015-11-20T07:46:45Z</time>
      </trkpt>
      <trkpt lat="46.4062" lon="2.73362">
        <ele>292.8</ele>
        <time>2015-11-20T07:46:45Z</time>
      </trkpt>
      <trkpt lat="46.40641" lon="2.73396">
        <ele>295.3</ele>
        <time>2015-11-20T07:46:45Z</time>
      </trkpt>
      <trkpt lat="46.40663" lon="2.73423">
        <ele>297.4</ele>
        <time>2015-11-20T07:46:45Z</time>
      </trkpt>
      <trkpt lat="46.40677" lon="2.73445">
        <ele>298.3</ele>
        <time>2015-11-20T07:46:45Z</time>
      </trkpt>
      <trkpt lat="46.40689" lon="2.73465">
        <ele>298.9</ele>
        <time>2015-11-20T07:46:45Z</time>
      </trkpt>
      <trkpt lat="46.407" lon="2.73491">
        <ele>300.1</ele>
        <time>2015-11-20T07:46:45Z</time>
      </trkpt>
      <trkpt lat="46.40709" lon="2.73515">
        <ele>300.5</ele>
        <time>2015-11-20T07:46:45Z</time>
      </trkpt>
      <trkpt lat="46.40713" lon="2.73526">
        <ele>300.5</ele>
        <time>2015-11-20T07:46:45Z</time>
      </trkpt>
      <trkpt lat="46.40734" lon="2.73514">
        <ele>299.6</ele>
        <time>2015-11-20T07:46:45Z</time>
      </trkpt>
      <trkpt lat="46.40729" lon="2.73498">
        <ele>299.6</ele>
        <time>2015-11-20T07:46:45Z</time>
      </trkpt>
    </trkseg>
  </trk>
</gpx>